Simultaneous Nadir Overpasses (SNOs) Predictions

Prediction of SNOs between GOES-16 and METOP-C Satellite Orbit:

Table of predicted SNOs for the next 14.0 days since TLE Epoch: 7/19/2019
Index Date Time (GOES-16) GOES-16 Lat,Lon METOP-C Lat,Lon Distance(km) Time Diff (sec)
1 07/20/2019 02:13:23 0.01, -75.19 0.92, -71.11 465.07 80
2 07/21/2019 14:34:55 -0.01, -75.20 0.12, -75.67 53.97 80
3 07/24/2019 02:33:16 0.01, -75.20 -0.01, -75.27 8.33 80
4 07/26/2019 14:28:50 -0.01, -75.22 -0.12, -74.85 43.25 80
5 07/28/2019 02:50:29 0.01, -75.22 -0.94, -79.43 480.04 80
6 07/29/2019 02:27:11 0.01, -75.23 0.22, -74.45 89.65 80
7 07/30/2019 14:48:43 -0.01, -75.25 0.81, -79.01 428.43 80
8 07/31/2019 14:25:24 -0.02, -75.26 -0.30, -74.02 141.41 80
9 08/02/2019 02:47:04 0.02, -75.26 -0.72, -78.61 381.37 80




NCC Satellite Simultaneous Nadir Overpasses (SNOs) Prediction Service
